Morgan Ngcobo

Recruteur en chef - Golden Arrows
4 Juin 2028
Dimanche
Processus

Personnalité

Adaptabilité (16) Ambition (9) Controverse (17) Loyauté (8) Pression (19) Professionnalisme (18) Sportivité (4) Tempérament (16)

Profil

Style d'entraînement Démocratique
Diplôme Continental Pro
Détermination 7
Gestion des joueurs 10
Motivation 6
Discipline 10
Satisfaction professionnelle
100%
Fatigue
0%
Rôle Recruteur en chef
Salaire 67.7K p/s
Contrat 14.03.2029

Performance

Comportement Bon
Efficacité de l'entraînement
38%
Développement des joueurs
40%
Prévention des blessures
15%
Mise en place tactique
40%

Suivi en cours

64
Joueur Club Statut Capacité Confiance Observé Dernière observation Dernier vote
Kambala Polokwane City Actif 100 / 77 51% 1 01.06.2028 -
Thabang Molaoa Chippa United Actif 82 / 99 51% 1 17.01.2028 -
John Swift Portsmouth Actif 137 / 107 40% 2 04.08.2027 -
Nesta Guinness-Walker Blackpool Actif 113 / 100 40% 2 04.08.2027 -
Matthew Smith Colchester United Actif 128 / 111 40% 1 04.08.2027 -
Matteo Angeli Perugia Actif 134 / 125 40% 1 04.08.2027 -
Luca Vignali Virtus Entella Actif 107 / 121 40% 2 01.08.2027 -
Cristiano Bani Ravenna Actif 102 / 116 40% 2 01.08.2027 -
Liam Henderson Sampdoria Actif 133 / 127 40% 2 30.07.2027 -
Valerio Mantovani Bari Actif 104 / 139 40% 3 30.07.2027 -
Aden Baldwin Cheltenham Town Actif 122 / 112 40% 1 30.07.2027 -
Paudie O'Connor Reading Actif 123 / 104 40% 2 28.07.2027 -
Baldovino Cimino Cosenza Actif 131 / 106 40% 1 28.07.2027 -
Khuliso Mudau Mamelodi Sundowns Actif 128 / 122 40% 1 28.07.2027 -
Tiago Ribeiro Newport County Actif 96 / 114 40% 4 27.07.2027 -
George Byers Port Vale Actif 97 / 122 40% 1 27.07.2027 -
Nathanael Ogbeta Plymouth Argyle Actif 111 / 94 40% 1 25.07.2027 -
Isaac Hayden Leyton Orient Actif 108 / 119 40% 2 23.07.2027 -
Emmanuel Ntim Ashanti Gold Actif 108 / 93 40% 2 23.07.2027 -
Dominic Ball Cambridge United Actif 114 / 93 40% 1 21.07.2027 -
Maxime Leverbe Vicenza Actif 130 / 115 40% 2 19.07.2027 -
Michael Craig Leyton Orient Actif 130 / 103 40% 1 19.07.2027 -
Pablo García Gijón Actif 102 / 110 40% 2 16.07.2027 -
Erick Mothiba Black Aces Actif 107 / 132 40% 1 16.07.2027 -
Ryan Sweeney Mansfield Town Actif 94 / 113 40% 1 14.07.2027 -
Gavin Kilkenny Swindon Town Actif 119 / 116 40% 1 14.07.2027 -
Christian Owusu WAFA Actif 99 / 122 40% 1 13.07.2027 -
Julián Illanes Carrarese Actif 107 / 122 40% 2 12.07.2027 -
Eoghan O'Connell Barnsley Actif 124 / 125 40% 1 12.07.2027 -
Rivaldo Coetzee SuperSport United Actif 102 / 109 40% 1 12.07.2027 -
Dominic Iorfa Sheffield Wednesday Actif 96 / 124 40% 2 09.07.2027 -
George Evans Barrow AFC Actif 126 / 126 40% 1 08.07.2027 -
Deano Van Rooyen Bidvest Wits Actif 118 / 104 40% 1 07.07.2027 -
Brendan Galloway Plymouth Argyle Actif 90 / 101 40% 1 06.07.2027 -
Ben Osborn Stockport County Actif 133 / 132 40% 1 05.07.2027 -
Cohen Bramall Cambridge United Actif 100 / 116 40% 1 04.07.2027 -
Andrea Cagnano Arezzo Actif 131 / 126 40% 1 01.07.2027 -
Kyle Knoyle Mansfield Town Actif 97 / 104 40% 1 30.06.2027 -
Fraser Horsfall Blackpool Actif 120 / 107 40% 1 30.06.2027 -
Ítalo Ural Actif 116 / 113 40% 1 30.06.2027 -
Nicolás Schiavi Carrarese Actif 120 / 97 40% 1 29.06.2027 -
Fawaaz Basadien Mamelodi Sundowns Actif 105 / 109 40% 1 29.06.2027 -
Will Forrester Leyton Orient Actif 108 / 118 40% 1 27.06.2027 -
José Álvarez Arsenal Tula Actif 129 / 102 40% 2 26.06.2027 -
Michał Helik Oxford United Actif 123 / 121 40% 1 24.06.2027 -
Brooklyn Poggenpoel Maritzburg United Actif 115 / 97 40% 1 24.06.2027 -
Paulo Azzi Modena Actif 126 / 104 40% 1 22.06.2027 -
Morgan Erasmus Ajax Cape Town Actif 118 / 116 40% 1 22.06.2027 -
Siyethemba Sithebe Bloemfontein Celtic Actif 85 / 110 51% 1 14.06.2027 -
Puleng Marema Actif 89 / 108 51% 1 01.06.2027 -
Lungelo Nguse US Forces Armees Actif 76 / 65 40% 1 30.01.2027 -
Paul Mbong Floriana Actif 91 / 89 40% 1 30.01.2027 -
Wandile Duba Bidvest Wits Actif 103 / 104 40% 1 29.01.2027 -
Giancarlo Mosta Actif 86 / 82 40% 1 27.01.2027 -
Solly Khunyedi Bloemfontein Celtic Actif 99 / 90 40% 1 27.01.2027 -
Jaze Kabia Grimsby Town Actif 86 / 77 40% 1 27.01.2027 -
Fernandinho Sliema Wanderers Actif 103 / 67 40% 1 25.01.2027 -
Luís Mota Zabbar St. Patrick Actif 103 / 108 40% 1 25.01.2027 -
Lee Bonis Chesterfield Actif 92 / 119 40% 1 24.01.2027 -
Patrick Schmidt Tarxien Rainbows Actif 106 / 101 40% 1 21.01.2027 -
Diamanka Senghor Mosta Actif 104 / 75 40% 1 20.01.2027 -
Mustapha Jah Floriana Actif 71 / 84 40% 1 19.01.2027 -
Kamran Aliev SKA Khabarovsk Actif 113 / 112 40% 1 19.01.2027 -
Vladislav Sarveli Nizhniy Novgorod Actif 116 / 116 40% 1 19.01.2027 -